EN

Hourly Weather Peterborough

Today, 9 March, Tuesday

Time Temperature Precipitation Wind Pressure Humidity
00:00 +2°C° 0 mm 3 mps 764 mmHg 88%
01:00 +2°C° 0 mm 3 mps 764 mmHg 88%
02:00 +1°C° 0 mm 3 mps 764 mmHg 88%
03:00 +1°C° 0 mm 3 mps 763 mmHg 88%
04:00 +1°C° 0 mm 3 mps 763 mmHg 89%
05:00 +1°C° 0 mm 3 mps 763 mmHg 90%
06:00 +1°C° 0 mm 3 mps 764 mmHg 91%
07:00 +2°C° 0 mm 3 mps 763 mmHg 88%
08:00 +3°C° 0 mm 3 mps 763 mmHg 85%
09:00 +4°C° 0 mm 3 mps 763 mmHg 82%
10:00 +7°C° 0 mm 3 mps 763 mmHg 78%
11:00 +8°C° 0 mm 2 mps 763 mmHg 74%
12:00 +10°C° 0 mm 2 mps 763 mmHg 70%
13:00 +10°C° 0 mm 2 mps 763 mmHg 69%
14:00 +10°C° 0 mm 3 mps 762 mmHg 69%
15:00 +11°C° 0 mm 3 mps 762 mmHg 68%
16:00 +9°C° 0 mm 3 mps 762 mmHg 74%
17:00 +8°C° 0 mm 3 mps 761 mmHg 80%
18:00 +7°C° 0 mm 3 mps 761 mmHg 86%
19:00 +5°C° 0 mm 3 mps 761 mmHg 85%
20:00 +4°C° 0 mm 3 mps 761 mmHg 85%
21:00 +4°C° 0 mm 4 mps 761 mmHg 85%
22:00 +3°C° 0 mm 5 mps 761 mmHg 83%
23:00 +3°C° 0 mm 5 mps 760 mmHg 82%

Tomorrow, 10 March, Wednesday

Time Temperature Precipitation Wind Pressure Humidity
00:00 +3°C° 0 mm 6 mps 760 mmHg 81%
01:00 +3°C° 0 mm 6 mps 759 mmHg 82%
02:00 +3°C° 0 mm 7 mps 758 mmHg 83%
03:00 +3°C° 0 mm 7 mps 758 mmHg 84%
04:00 +2°C° 0.1 mm 8 mps 757 mmHg 83%
05:00 +3°C° 0.1 mm 9 mps 757 mmHg 82%
06:00 +3°C° 0.1 mm 9 mps 756 mmHg 81%
07:00 +3°C° 0.2 mm 9 mps 756 mmHg 82%
08:00 +3°C° 0.2 mm 9 mps 755 mmHg 84%
09:00 +3°C° 0.2 mm 10 mps 755 mmHg 86%
10:00 +5°C° 0.4 mm 9 mps 754 mmHg 87%
11:00 +5°C° 0.4 mm 9 mps 754 mmHg 89%
12:00 +6°C° 0.4 mm 9 mps 754 mmHg 90%
13:00 +6°C° 0.4 mm 9 mps 753 mmHg 90%
14:00 +6°C° 0.4 mm 9 mps 752 mmHg 91%
15:00 +7°C° 0.4 mm 8 mps 751 mmHg 91%
16:00 +7°C° 0.1 mm 9 mps 750 mmHg 91%
17:00 +8°C° 0.1 mm 9 mps 749 mmHg 91%
18:00 +8°C° 0.1 mm 9 mps 748 mmHg 91%
19:00 +9°C° 0 mm 10 mps 747 mmHg 91%
20:00 +9°C° 0 mm 10 mps 747 mmHg 91%
21:00 +11°C° 0 mm 10 mps 746 mmHg 91%
22:00 +11°C° 0.4 mm 10 mps 745 mmHg 89%
23:00 +11°C° 0.4 mm 10 mps 744 mmHg 88%

Day after tomorrow, 11 March, Thursday

Time Temperature Precipitation Wind Pressure Humidity
00:00 +11°C° 0.4 mm 10 mps 744 mmHg 86%
01:00 +9°C° 0.1 mm 11 mps 743 mmHg 82%
02:00 +8°C° 0.1 mm 11 mps 743 mmHg 79%
03:00 +7°C° 0.1 mm 11 mps 742 mmHg 76%
04:00 +5°C° 0 mm 12 mps 742 mmHg 76%
05:00 +5°C° 0 mm 12 mps 742 mmHg 76%
06:00 +4°C° 0 mm 13 mps 741 mmHg 77%
07:00 +5°C° 0 mm 13 mps 742 mmHg 75%
08:00 +5°C° 0 mm 13 mps 742 mmHg 73%
09:00 +5°C° 0 mm 13 mps 742 mmHg 71%
10:00 +5°C° 0.1 mm 12 mps 743 mmHg 70%
11:00 +5°C° 0.1 mm 12 mps 744 mmHg 69%
12:00 +6°C° 0.1 mm 11 mps 744 mmHg 68%
13:00 +6°C° 0.2 mm 11 mps 745 mmHg 66%
14:00 +7°C° 0.2 mm 11 mps 745 mmHg 65%
15:00 +7°C° 0.2 mm 11 mps 745 mmHg 64%
16:00 +6°C° 0.1 mm 10 mps 746 mmHg 66%
17:00 +5°C° 0.1 mm 9 mps 747 mmHg 69%
18:00 +4°C° 0.1 mm 8 mps 747 mmHg 71%
19:00 +2°C° 0 mm 8 mps 748 mmHg 71%
20:00 +2°C° 0 mm 8 mps 749 mmHg 70%
21:00 +2°C° 0 mm 7 mps 750 mmHg 70%
22:00 +1°C° 0 mm 8 mps 751 mmHg 70%
23:00 +1°C° 0 mm 8 mps 751 mmHg 71%

12 March, Friday

Time Temperature Precipitation Wind Pressure Humidity
00:00 +1°C° 0 mm 8 mps 751 mmHg 71%
01:00 +1°C° 0 mm 8 mps 751 mmHg 74%
02:00 +2°C° 0 mm 8 mps 751 mmHg 76%
03:00 +2°C° 0 mm 9 mps 751 mmHg 78%
04:00 +2°C° 0.1 mm 8 mps 751 mmHg 81%
05:00 +2°C° 0.1 mm 8 mps 751 mmHg 83%
06:00 +3°C° 0.1 mm 7 mps 751 mmHg 85%
07:00 +4°C° 0.1 mm 7 mps 750 mmHg 82%
08:00 +4°C° 0.1 mm 8 mps 750 mmHg 79%
09:00 +5°C° 0.1 mm 8 mps 750 mmHg 76%
10:00 +5°C° 0.5 mm 7 mps 750 mmHg 79%
11:00 +5°C° 0.5 mm 7 mps 750 mmHg 82%
12:00 +4°C° 0.5 mm 7 mps 750 mmHg 85%
13:00 +5°C° 0.1 mm 7 mps 750 mmHg 77%
14:00 +6°C° 0.1 mm 8 mps 750 mmHg 70%
15:00 +7°C° 0.1 mm 8 mps 750 mmHg 63%
16:00 +6°C° 0.1 mm 7 mps 750 mmHg 67%
17:00 +5°C° 0.1 mm 6 mps 750 mmHg 70%
18:00 +5°C° 0.1 mm 5 mps 750 mmHg 74%
19:00 +3°C° 0 mm 6 mps 750 mmHg 77%
20:00 +3°C° 0 mm 7 mps 749 mmHg 80%
21:00 +3°C° 0 mm 7 mps 749 mmHg 82%
22:00 +2°C° 0.2 mm 8 mps 748 mmHg 84%
23:00 +3°C° 0.2 mm 9 mps 747 mmHg 86%

13 March, Saturday

Time Temperature Precipitation Wind Pressure Humidity
00:00 +3°C° 0.2 mm 10 mps 746 mmHg 87%
01:00 +3°C° 0.5 mm 9 mps 745 mmHg 88%
02:00 +5°C° 0.5 mm 9 mps 744 mmHg 88%
03:00 +5°C° 0.5 mm 9 mps 743 mmHg 88%
04:00 +5°C° 0.4 mm 9 mps 743 mmHg 87%
05:00 +5°C° 0.4 mm 9 mps 743 mmHg 86%
06:00 +5°C° 0.4 mm 8 mps 742 mmHg 86%
07:00 +5°C° 0.1 mm 9 mps 742 mmHg 83%
08:00 +3°C° 0.1 mm 9 mps 742 mmHg 80%
09:00 +3°C° 0.1 mm 9 mps 742 mmHg 77%
10:00 +5°C° 0.3 mm 9 mps 742 mmHg 78%
11:00 +5°C° 0.3 mm 9 mps 742 mmHg 78%
12:00 +5°C° 0.3 mm 10 mps 742 mmHg 79%
13:00 +5°C° 0.4 mm 9 mps 742 mmHg 80%
14:00 +3°C° 0.4 mm 9 mps 742 mmHg 82%
15:00 +2°C° 0.4 mm 9 mps 742 mmHg 83%
16:00 +2°C° 0.5 mm 8 mps 742 mmHg 84%
17:00 +3°C° 0.5 mm 7 mps 743 mmHg 84%
18:00 +3°C° 0.5 mm 6 mps 744 mmHg 84%
19:00 +2°C° 0 mm 6 mps 745 mmHg 83%
20:00 +2°C° 0 mm 6 mps 746 mmHg 83%
21:00 +2°C° 0 mm 6 mps 747 mmHg 82%
22:00 +1°C° 0 mm 6 mps 748 mmHg 81%
23:00 +1°C° 0 mm 6 mps 749 mmHg 80%

14 March, Sunday

Time Temperature Precipitation Wind Pressure Humidity
00:00 0°C° 0 mm 7 mps 750 mmHg 80%
01:00 0°C° 0.1 mm 7 mps 750 mmHg 82%
02:00 +1°C° 0.1 mm 8 mps 750 mmHg 85%
03:00 +1°C° 0.1 mm 9 mps 750 mmHg 87%
04:00 +1°C° 0.1 mm 9 mps 751 mmHg 87%
05:00 +1°C° 0.1 mm 8 mps 751 mmHg 86%
06:00 +1°C° 0.1 mm 8 mps 752 mmHg 86%
07:00 +2°C° 0 mm 9 mps 752 mmHg 84%
08:00 +2°C° 0 mm 9 mps 753 mmHg 82%
09:00 +3°C° 0 mm 9 mps 754 mmHg 80%
10:00 +3°C° 0.1 mm 9 mps 754 mmHg 80%
11:00 +3°C° 0.1 mm 9 mps 755 mmHg 80%
12:00 +5°C° 0.1 mm 9 mps 755 mmHg 80%
13:00 +5°C° 0.1 mm 9 mps 755 mmHg 77%
14:00 +6°C° 0.1 mm 9 mps 756 mmHg 73%
15:00 +6°C° 0.1 mm 9 mps 756 mmHg 70%
16:00 +6°C° 0 mm 8 mps 756 mmHg 73%
17:00 +5°C° 0 mm 7 mps 757 mmHg 75%
18:00 +4°C° 0 mm 6 mps 757 mmHg 78%
19:00 +4°C° 0 mm 6 mps 758 mmHg 79%
20:00 +3°C° 0 mm 6 mps 759 mmHg 81%
21:00 +3°C° 0 mm 6 mps 760 mmHg 83%
22:00 +3°C° 0 mm 5 mps 760 mmHg 84%
23:00 +2°C° 0 mm 5 mps 761 mmHg 86%
Show more